User: anonymous
Location: Cincinnati Observatory Center
(39.1389°N, 84.4225°W)
Time: 17:53:27
(UTC-04:00)
Language:

COSMOS 2428 - Orbit

View from above orbital plane
View from above orbital plane
View from above satellite
View from above satellite

Ground track
Ground track

The orbit data is extracted from the following two-line orbital elements,

1 31792U 07029A   14106.54784104  .00000344  00000-0  21242-3 0  5323
2 31792 070.9485 318.7318 0011818 227.0357 155.1900 14.12304206350612
Epoch (UTC): 16 April 2014 13:08:53
Eccentricity: 0.0011818
inclination: 70.9485°
perigee height: 843 km
apogee height: 860 km
right ascension of ascending node: 318.7318°
argument of perigee: 227.0357°
revolutions per day: 14.12304206
mean anomaly at epoch: 155.1900°
orbit number at epoch: 35061

The dashed part of the orbit path shows where the satellite is in the earth's shadow,  

DLR